When you browse on this site, cookies collect data to enhance your experience and personalize the content and advertising you see.
Visit our Privacy Policy to learn more. By continuing to use the site, you agree to this use of cookies and data.
  • In Hungary
  • List of Countries
  • For 7 days
  • Water Temperature
  • Satellite Maps
  • Weather Map
  • News
  • Weather Widgets
  • user-avatar
    Login

    Hourly Weather Santo Antonio do Sudoeste

    Today, 16 January, Wednesday

    Time Temperature Precipitation Wind Pressure Humidity
    00:00 +24°C° 0 mm 1 mps 714 mmHg 89%
    01:00 +24°C° 0 mm 1 mps 714 mmHg 89%
    02:00 +24°C° 0 mm 1 mps 714 mmHg 89%
    03:00 +24°C° 0 mm 1 mps 714 mmHg 90%
    04:00 +23°C° 0 mm 1 mps 714 mmHg 92%
    05:00 +23°C° 0 mm 1 mps 714 mmHg 93%
    06:00 +25°C° 0 mm 2 mps 715 mmHg 83%
    07:00 +28°C° 0 mm 2 mps 715 mmHg 73%
    08:00 +30°C° 0 mm 2 mps 716 mmHg 63%
    09:00 +33°C° 0.1 mm 3 mps 716 mmHg 56%
    10:00 +34°C° 0.1 mm 3 mps 716 mmHg 49%
    11:00 +36°C° 0.1 mm 3 mps 716 mmHg 42%
    12:00 +36°C° 0 mm 3 mps 716 mmHg 42%
    13:00 +36°C° 0 mm 2 mps 715 mmHg 42%
    14:00 +36°C° 0 mm 2 mps 715 mmHg 42%
    15:00 +36°C° 0 mm 2 mps 715 mmHg 45%
    16:00 +34°C° 0 mm 1 mps 714 mmHg 48%
    17:00 +33°C° 0 mm 1 mps 714 mmHg 51%
    18:00 +31°C° 0 mm 1 mps 714 mmHg 58%
    19:00 +30°C° 0 mm 1 mps 714 mmHg 64%
    20:00 +28°C° 0 mm 1 mps 714 mmHg 71%
    21:00 +27°C° 0 mm 1 mps 714 mmHg 74%
    22:00 +27°C° 0 mm 1 mps 714 mmHg 76%
    23:00 +26°C° 0 mm 1 mps 715 mmHg 79%

    Tomorrow, 17 January, Thursday

    Time Temperature Precipitation Wind Pressure Humidity
    00:00 +26°C° 0 mm 1 mps 714 mmHg 79%
    01:00 +25°C° 0 mm 1 mps 714 mmHg 80%
    02:00 +25°C° 0 mm 1 mps 714 mmHg 81%
    03:00 +25°C° 0 mm 1 mps 714 mmHg 82%
    04:00 +25°C° 0 mm 1 mps 714 mmHg 84%
    05:00 +24°C° 0 mm 1 mps 714 mmHg 85%
    06:00 +27°C° 0 mm 2 mps 715 mmHg 77%
    07:00 +29°C° 0 mm 2 mps 715 mmHg 68%
    08:00 +31°C° 0 mm 2 mps 716 mmHg 60%
    09:00 +34°C° 0 mm 2 mps 716 mmHg 52%
    10:00 +36°C° 0 mm 2 mps 716 mmHg 45%
    11:00 +38°C° 0 mm 3 mps 716 mmHg 38%
    12:00 +36°C° 0 mm 2 mps 715 mmHg 44%
    13:00 +34°C° 0 mm 1 mps 714 mmHg 50%
    14:00 +33°C° 0 mm 1 mps 714 mmHg 56%
    15:00 +34°C° 0 mm 1 mps 714 mmHg 52%
    16:00 +35°C° 0 mm 1 mps 714 mmHg 48%
    17:00 +36°C° 0 mm 1 mps 714 mmHg 44%
    18:00 +33°C° 0 mm 1 mps 714 mmHg 51%
    19:00 +31°C° 0 mm 1 mps 714 mmHg 57%
    20:00 +27°C° 0 mm 0 mps 714 mmHg 63%
    21:00 +28°C° 0 mm 1 mps 714 mmHg 68%
    22:00 +27°C° 0 mm 2 mps 714 mmHg 73%
    23:00 +26°C° 0 mm 2 mps 715 mmHg 78%

    Day after tomorrow, 18 January, Friday

    Time Temperature Precipitation Wind Pressure Humidity
    00:00 +26°C° 0.3 mm 2 mps 714 mmHg 82%
    01:00 +25°C° 0.3 mm 2 mps 714 mmHg 86%
    02:00 +24°C° 0.3 mm 2 mps 713 mmHg 90%
    03:00 +24°C° 0.1 mm 2 mps 713 mmHg 90%
    04:00 +24°C° 0.1 mm 2 mps 713 mmHg 90%
    05:00 +23°C° 0.1 mm 2 mps 713 mmHg 90%
    06:00 +26°C° 0.1 mm 2 mps 714 mmHg 82%
    07:00 +28°C° 0.1 mm 2 mps 714 mmHg 74%
    08:00 +30°C° 0.1 mm 3 mps 715 mmHg 65%
    09:00 +32°C° 0.1 mm 2 mps 715 mmHg 58%
    10:00 +35°C° 0.1 mm 2 mps 715 mmHg 52%
    11:00 +37°C° 0.1 mm 2 mps 715 mmHg 45%
    12:00 +34°C° 1.7 mm 2 mps 715 mmHg 58%
    13:00 +30°C° 1.7 mm 2 mps 714 mmHg 72%
    14:00 +27°C° 1.7 mm 1 mps 713 mmHg 85%
    15:00 +26°C° 7.7 mm 2 mps 713 mmHg 89%
    16:00 +25°C° 7.7 mm 2 mps 712 mmHg 93%
    17:00 +24°C° 7.7 mm 2 mps 712 mmHg 97%
    18:00 +24°C° 2.7 mm 2 mps 713 mmHg 97%
    19:00 +24°C° 2.7 mm 1 mps 713 mmHg 97%
    20:00 +24°C° 2.7 mm 1 mps 714 mmHg 98%
    21:00 +24°C° 0.1 mm 1 mps 714 mmHg 97%
    22:00 +24°C° 0.1 mm 1 mps 714 mmHg 96%
    23:00 +24°C° 0.1 mm 1 mps 713 mmHg 95%

    19 January, Saturday

    Time Temperature Precipitation Wind Pressure Humidity
    00:00 +23°C° 0 mm 1 mps 713 mmHg 96%
    01:00 +23°C° 0 mm 1 mps 712 mmHg 96%
    02:00 +23°C° 0 mm 1 mps 712 mmHg 96%
    03:00 +22°C° 0 mm 1 mps 712 mmHg 97%
    04:00 +22°C° 0 mm 1 mps 712 mmHg 97%
    05:00 +20°C° 0 mm 0 mps 713 mmHg 97%
    06:00 +22°C° 0 mm 0 mps 713 mmHg 88%
    07:00 +25°C° 0 mm 0 mps 714 mmHg 79%
    08:00 +27°C° 0 mm 0 mps 715 mmHg 70%
    09:00 +28°C° 1.2 mm 0 mps 715 mmHg 73%
    10:00 +30°C° 1.2 mm 1 mps 715 mmHg 76%
    11:00 +30°C° 1.2 mm 1 mps 714 mmHg 79%
    12:00 +30°C° 2.2 mm 1 mps 714 mmHg 83%
    13:00 +29°C° 2.2 mm 2 mps 713 mmHg 86%
    14:00 +29°C° 2.2 mm 2 mps 713 mmHg 89%
    15:00 +28°C° 1.9 mm 2 mps 712 mmHg 90%
    16:00 +28°C° 1.9 mm 2 mps 712 mmHg 90%
    17:00 +28°C° 1.9 mm 2 mps 712 mmHg 90%
    18:00 +26°C° 0.6 mm 2 mps 713 mmHg 92%
    19:00 +25°C° 0.6 mm 2 mps 713 mmHg 95%
    20:00 +24°C° 0.6 mm 2 mps 713 mmHg 98%
    21:00 +24°C° 0 mm 1 mps 713 mmHg 97%
    22:00 +23°C° 0 mm 1 mps 713 mmHg 97%
    23:00 +23°C° 0 mm 1 mps 713 mmHg 97%

    20 January, Sunday

    Time Temperature Precipitation Wind Pressure Humidity
    00:00 +23°C° 0 mm 1 mps 713 mmHg 98%
    01:00 +23°C° 0 mm 1 mps 712 mmHg 98%
    02:00 +22°C° 0 mm 1 mps 712 mmHg 98%
    03:00 +22°C° 0 mm 1 mps 712 mmHg 98%
    04:00 +21°C° 0 mm 2 mps 713 mmHg 98%
    05:00 +21°C° 0 mm 2 mps 713 mmHg 98%
    06:00 +24°C° 0 mm 2 mps 713 mmHg 91%
    07:00 +25°C° 0 mm 2 mps 714 mmHg 84%
    08:00 +27°C° 0 mm 3 mps 714 mmHg 77%
    09:00 +29°C° 0 mm 2 mps 714 mmHg 68%
    10:00 +31°C° 0 mm 2 mps 714 mmHg 59%
    11:00 +34°C° 0 mm 2 mps 714 mmHg 50%
    12:00 +34°C° 0.1 mm 2 mps 714 mmHg 53%
    13:00 +33°C° 0.1 mm 1 mps 714 mmHg 55%
    14:00 +32°C° 0.1 mm 1 mps 713 mmHg 58%
    15:00 +31°C° 0.3 mm 1 mps 713 mmHg 64%
    16:00 +30°C° 0.3 mm 1 mps 712 mmHg 70%
    17:00 +28°C° 0.3 mm 0 mps 712 mmHg 76%
    18:00 +28°C° 0.3 mm 1 mps 712 mmHg 81%
    19:00 +27°C° 0.3 mm 1 mps 712 mmHg 86%
    20:00 +25°C° 0.3 mm 1 mps 712 mmHg 91%
    21:00 +25°C° 0 mm 1 mps 713 mmHg 93%
    22:00 +24°C° 0 mm 1 mps 713 mmHg 95%
    23:00 +24°C° 0 mm 1 mps 713 mmHg 97%

    21 January, Monday

    Time Temperature Precipitation Wind Pressure Humidity
    00:00 +24°C° 0 mm 1 mps 712 mmHg 97%
    01:00 +23°C° 0 mm 1 mps 712 mmHg 97%
    02:00 +23°C° 0 mm 1 mps 712 mmHg 97%
    03:00 +23°C° 0 mm 1 mps 712 mmHg 97%
    04:00 +23°C° 0 mm 1 mps 712 mmHg 97%
    05:00 +22°C° 0 mm 1 mps 712 mmHg 97%
    06:00 +24°C° 0.1 mm 1 mps 713 mmHg 92%
    07:00 +26°C° 0.1 mm 1 mps 713 mmHg 86%
    08:00 +28°C° 0.1 mm 1 mps 714 mmHg 80%
    09:00 +29°C° 1.3 mm 2 mps 714 mmHg 79%
    10:00 +29°C° 1.3 mm 2 mps 714 mmHg 78%
    11:00 +30°C° 1.3 mm 3 mps 713 mmHg 77%
    12:00 +31°C° 0.6 mm 2 mps 713 mmHg 73%
    13:00 +31°C° 0.6 mm 2 mps 713 mmHg 70%
    14:00 +32°C° 0.6 mm 2 mps 713 mmHg 66%
    15:00 +32°C° 1.1 mm 2 mps 713 mmHg 67%
    16:00 +32°C° 1.1 mm 1 mps 712 mmHg 68%
    17:00 +32°C° 1.1 mm 1 mps 712 mmHg 69%
    18:00 +29°C° 2.4 mm 1 mps 712 mmHg 78%
    19:00 +27°C° 2.4 mm 1 mps 713 mmHg 86%
    20:00 +25°C° 2.4 mm 1 mps 713 mmHg 95%
    21:00 +25°C° 0.2 mm 1 mps 713 mmHg 96%
    22:00 +24°C° 0.2 mm 1 mps 713 mmHg 96%
    23:00 +24°C° 0.2 mm 1 mps 713 mmHg 97%
    Show more